This demonstration page uses our WeatherBlox Daily Observations layout. Learn more.

Left ArrowRight Arrow

Hourly Observations for December 22, 2020

Temp ( °F °C ) Dew Point ( °F °C ) Humidity (%) Winds ( mph kmh ) Pressure ( in mb ) Visibility ( mi km ) Precip ( " mm )
12:15 am 00:15 Cloudy 39 4 32 0 75 75 W 21 33 29.91 1013 10 16.0934 N/A
12:35 am 00:35 Cloudy 39 4 32 0 75 75 W 21 33 29.93 1014 10 16.0934 N/A
12:55 am 00:55 Cloudy 39 4 30 -1 70 70 WNW 17 28 29.94 1014 10 16.0934 N/A
1:15 am 01:15 Cloudy 39 4 30 -1 70 70 WNW 16 26 29.95 1014 10 16.0934 N/A
1:35 am 01:35 Cloudy 37 3 32 0 81 81 WNW 16 26 29.96 1015 10 16.0934 N/A
1:55 am 01:55 Cloudy 37 3 32 0 81 81 WNW 13 20 29.97 1015 10 16.0934 N/A
2:15 am 02:15 Cloudy 37 3 32 0 81 81 WNW 14 22 29.99 1016 10 16.0934 N/A
2:35 am 02:35 Cloudy 37 3 32 0 81 81 WNW 16 26 30.01 1016 10 16.0934 N/A
2:55 am 02:55 Cloudy 37 3 32 0 81 81 WNW 10 17 30.03 1017 10 16.0934 N/A
3:15 am 03:15 Cloudy 37 3 32 0 81 81 WNW 12 19 30.05 1018 10 16.0934 N/A
3:35 am 03:35 Cloudy 36 2 32 0 87 87 W 16 26 30.06 1018 10 16.0934 N/A
3:55 am 03:55 Cloudy 36 2 32 0 87 87 WNW 15 24 30.08 1019 10 16.0934 N/A
4:15 am 04:15 Partly Cloudy 34 1 30 -1 87 87 WNW 12 19 30.09 1019 10 16.0934 N/A
4:35 am 04:35 Clear 32 0 30 -1 93 93 W 12 19 30.11 1019 10 16.0934 N/A
4:55 am 04:55 Partly Cloudy 32 0 30 -1 93 93 W 8 13 30.12 1020 10 16.0934 N/A
5:15 am 05:15 Mostly Cloudy 32 0 32 0 100 100 W 10 17 30.13 1020 10 16.0934 N/A
5:35 am 05:35 Cloudy 32 0 32 0 100 100 W 9 15 30.15 1021 10 16.0934 N/A
5:55 am 05:55 Cloudy 32 0 32 0 100 100 W 9 15 30.15 1021 10 16.0934 N/A
6:15 am 06:15 Partly Cloudy 32 0 30 -1 93 93 W 9 15 30.17 1022 10 16.0934 N/A
6:35 am 06:35 Mostly Cloudy 32 0 32 0 100 100 W 8 13 30.17 1022 10 16.0934 N/A
6:55 am 06:55 Cloudy 32 0 32 0 100 100 W 10 17 30.18 1022 10 16.0934 N/A
7:15 am 07:15 Cloudy 32 0 32 0 100 100 W 10 17 30.19 1022 10 16.0934 N/A
7:35 am 07:35 Cloudy 32 0 32 0 100 100 W 9 15 30.21 1023 10 16.0934 N/A
7:55 am 07:55 Cloudy 32 0 32 0 100 100 W 9 15 30.22 1023 10 16.0934 N/A
8:15 am 08:15 Cloudy 32 0 32 0 100 100 W 9 15 30.23 1024 10 16.0934 N/A
8:35 am 08:35 Cloudy 32 0 32 0 100 100 W 8 13 30.25 1024 10 16.0934 N/A
8:55 am 08:55 Cloudy 32 0 32 0 100 100 W 12 19 30.25 1024 10 16.0934 N/A
9:15 am 09:15 Partly Cloudy 32 0 32 0 100 100 W 9 15 30.25 1024 10 16.0934 N/A
9:35 am 09:35 Sunny 34 1 32 0 93 93 W 8 13 30.25 1024 10 16.0934 N/A
9:55 am 09:55 Sunny 34 1 32 0 93 93 W 9 15 30.27 1025 10 16.0934 N/A
10:15 am 10:15 Sunny 36 2 32 0 87 87 Calm 30.29 1026 10 16.0934 N/A
10:35 am 10:35 Sunny 36 2 32 0 87 87 Calm 30.29 1026 10 16.0934 N/A
10:55 am 10:55 Sunny 37 3 32 0 81 81 Calm 30.29 1026 10 16.0934 N/A
11:15 am 11:15 Sunny 37 3 32 0 81 81 Calm 30.3 1026 10 16.0934 N/A
11:35 am 11:35 Sunny 39 4 34 1 81 81 Calm 30.3 1026 10 16.0934 N/A
11:55 am 11:55 Sunny 41 5 34 1 76 76 SW 8 13 30.29 1026 10 16.0934 N/A
12:15 pm 12:15 Sunny 41 5 32 0 70 70 Calm 30.28 1025 10 16.0934 N/A
12:35 pm 12:35 Sunny 41 5 34 1 76 76 SSW 8 13 30.27 1025 10 16.0934 N/A
12:55 pm 12:55 Sunny 41 5 32 0 70 70 Calm 30.27 1025 10 16.0934 N/A
1:15 pm 13:15 Sunny 41 5 32 0 70 70 Calm 30.26 1025 10 16.0934 N/A
1:35 pm 13:35 Sunny 43 6 34 1 71 71 S 6 9 30.26 1025 10 16.0934 N/A
1:55 pm 13:55 Sunny 43 6 34 1 71 71 S 8 13 30.25 1025 10 16.0934 N/A
2:15 pm 14:15 Sunny 43 6 34 1 71 71 S 6 9 30.25 1025 10 16.0934 N/A
2:35 pm 14:35 Sunny 43 6 34 1 71 71 S 7 11 30.25 1025 10 16.0934 N/A
2:55 pm 14:55 Sunny 43 6 34 1 71 71 Calm 30.23 1024 10 16.0934 N/A
3:15 pm 15:15 Sunny 43 6 34 1 71 71 S 8 13 30.23 1024 10 16.0934 N/A
3:35 pm 15:35 Sunny 43 6 32 0 66 66 Calm 30.23 1024 10 16.0934 N/A
3:55 pm 15:55 Sunny 43 6 34 1 71 71 S 7 11 30.23 1024 10 16.0934 N/A
4:15 pm 16:15 Sunny 43 6 34 1 71 71 S 8 13 30.23 1024 10 16.0934 N/A
4:35 pm 16:35 Sunny 41 5 32 0 70 70 Calm 30.24 1024 10 16.0934 N/A
4:55 pm 16:55 Mostly Cloudy 43 6 34 1 71 71 Calm 30.22 1024 10 16.0934 N/A
5:15 pm 17:15 Partly Cloudy 41 5 34 1 76 76 Calm 30.24 1024 10 16.0934 N/A
5:35 pm 17:35 Partly Cloudy 39 4 34 1 81 81 Calm 30.23 1024 10 16.0934 N/A
5:55 pm 17:55 Cloudy 39 4 34 1 81 81 SSE 8 13 30.22 1023 10 16.0934 N/A
6:15 pm 18:15 Partly Cloudy 37 3 34 1 87 87 S 8 13 30.22 1024 10 16.0934 N/A
6:35 pm 18:35 Clear 37 3 34 1 87 87 S 8 13 30.22 1024 10 16.0934 N/A
6:55 pm 18:55 Clear 36 2 32 0 87 87 Calm 30.23 1024 10 16.0934 N/A
7:15 pm 19:15 Clear 36 2 32 0 87 87 Calm 30.24 1024 10 16.0934 N/A
7:36 pm 19:36 Clear 36 2 32 0 87 87 Calm 30.23 1024 10 16.0934 N/A
7:55 pm 19:55 Clear 36 2 32 0 87 87 Calm 30.23 1024 10 16.0934 N/A
8:15 pm 20:15 Clear 36 2 32 0 87 87 Calm 30.22 1023 10 16.0934 N/A
8:35 pm 20:35 Clear 36 2 32 0 87 87 SE 8 13 30.21 1023 10 16.0934 N/A
8:55 pm 20:55 Clear 36 2 32 0 87 87 Calm 30.2 1023 10 16.0934 N/A
9:15 pm 21:15 Clear 36 2 32 0 87 87 SSE 9 15 30.2 1023 10 16.0934 N/A
9:35 pm 21:35 Clear 36 2 32 0 87 87 SSE 8 13 30.21 1023 10 16.0934 N/A
9:55 pm 21:55 Clear 36 2 32 0 87 87 SSE 9 15 30.2 1023 10 16.0934 N/A
10:15 pm 22:15 Clear 36 2 32 0 87 87 SSE 8 13 30.2 1023 10 16.0934 N/A
10:35 pm 22:35 Clear 36 2 32 0 87 87 SSE 8 13 30.2 1023 10 16.0934 N/A
10:55 pm 22:55 Clear 36 2 32 0 87 87 SSE 12 19 30.2 1023 10 16.0934 N/A
11:15 pm 23:15 Clear 36 2 32 0 87 87 SSE 13 20 30.18 1022 10 16.0934 N/A
11:35 pm 23:35 Clear 36 2 32 0 87 87 SSE 10 17 30.19 1022 10 16.0934 N/A
11:55 pm 23:55 Clear 34 1 32 0 93 93 SSE 8 13 30.2 1023 10 16.0934 N/A

Powered by AerisWeather